CLUSTER II-FM8 (TANGO)

Last updated on Jan. 25, 2020, 4:44 a.m. UTC

1 26464U 00045B   20023.46851582 -.00000115  00000-0  00000+0 0  9994
2 26464 131.6053 340.5324 4257928 179.2986 181.7393  0.44220121 57610
UTC
Height (km)
Latitude
Longitude
Inclination
Orbital Period
UTC large
Height (km)
Speed (km/s)
/
Latitude / Longitude
Inclination (degrees)
Orbital Period (minutes)
Azimuth
Elevation
Range (km)
Doppler Factor
iOS Compass Heading
iOS Angle

Next 30 passes for location: Hong Kong

Rise time Rise Azimuth (degrees) Set time Set Azimuth (degrees) Duration Max altitude (degrees)

No matching passes for this satellites